Regional Weather Roundup
Issued by NWS

Home | Current Version | Previous Version | Graphics & Text | Print | Product List | Glossary On
Versions: 1 2 3 4 5 6 7 8 9 10 11 12 13 14 15 16 17 18 19 20 21 22 23 24 25 26 27 28 29 30 31 32 33 34 35 36 37 38 39 40 41 42 43 44 45 46 47 48 49 50
000
ASUS45 KTFX 071010
RWRMT
MONTANA REGIONAL WEATHER ROUNDUP
NATIONAL WEATHER SERVICE GREAT FALLS MT
400 AM MDT TUE JUL 07 2015

NOTE: "FAIR" INDICATES FEW OR NO CLOUDS BELOW 12000 FEET WITH NO
SIGNIFICANT WEATHER AND/OR OBSTRUCTIONS TO VISIBILITY.

MTZ001>007-043-071100-
WEST OF THE DIVIDE

CITY           SKY/WX    TMP DP  RH WIND       PRES   REMARKS
KALISPELL      PTSUNNY   53  47  79 CALM      30.03R
MISSOULA       MOCLDY    58  38  47 CALM      30.06S
BUTTE          PTCLDY    47  32  56 SE6       30.18S
MULLAN PASS    CLOUDY    63  38  39 S6        30.17F
DEER LODGE       N/A     45  36  70 CALM      30.18S
EUREKA           N/A     66  45  45 S5        30.02S
HAMILTON         N/A     59  41  51 S7        30.07S
LIBBY            N/A     61  43  51 CALM      30.03S
PLAINS           N/A     59  45  59 CALM      30.01S
RONAN            N/A     59  50  72 CALM      30.06S
THOMPSON FALLS   N/A     62  47  58 NE1       30.04S
$$

MTZ008-052>055-071100-
SOUTHWEST MONTANA

CITY           SKY/WX    TMP DP  RH WIND       PRES   REMARKS
BOZEMAN        CLEAR     56  48  74 S7        30.13S
DILLON         CLEAR     55  45  68 S8        30.15S
W YELLOWSTONE  CLOUDY    54  52  94 CALM      30.23S
THREE FORKS      N/A     54  54 100 CALM      30.10S
$$

MTZ009-010-012-014-046-048-049-054-071100-
EAST SLOPES AND CENTRAL MONTANA

CITY           SKY/WX    TMP DP  RH WIND       PRES   REMARKS
CUT BANK       MOCLDY    55  51  86 NW15      30.10R
GREAT FALLS    CLEAR     51  47  86 CALM      30.06F
MALMSTROM AFB  CLEAR     52  48  87 S8        30.06F
HELENA         CLEAR     57  49  74 N3        30.10R
CONRAD           N/A     50  50 100 E2        30.08F
$$

MTZ011-013-016-021-045-047-050-051-071100-
NORTH CENTRAL MONTANA

CITY           SKY/WX    TMP DP  RH WIND       PRES   REMARKS
HAVRE          CLEAR     56  50  80 E8        30.05R
LEWISTOWN      CLEAR     49  44  83 E5        30.09F
CHINOOK          N/A     54  48  82 SE3       30.05S
FORT BENTON      N/A     54  50  87 CALM      30.06S
$$

MTZ017>020-022>027-061-062-071100-
NORTHEAST MONTANA

CITY           SKY/WX    TMP DP  RH WIND       PRES   REMARKS
GLASGOW        PTCLDY    54  48  80 E12       30.08F
JORDAN           N/A     56  46  69 SE5       30.08F
SIDNEY         PTCLDY    55  50  82 CALM      30.15S
WOLF POINT     MOCLDY    57  51  80 NE5       30.11F HAZE
MALTA            N/A     57  46  66 CALM      30.03S
PLENTYWOOD       N/A     50  46  87 E6        30.13F
POPLAR           N/A     57  54  88 CALM      30.11F
SCOBEY           N/A     50  43  77 SE1       30.10F
$$

MTZ028>42-056>058-071100-
SOUTHCENTRAL AND SOUTHEAST MONTANA

CITY           SKY/WX    TMP DP  RH WIND       PRES   REMARKS
BAKER          CLEAR     51  49  92 SE7       30.16F FOG
BILLINGS       CLEAR     58  52  80 N5        30.11S
LIVINGSTON     MOCLDY    53  47  79 CALM      30.14S
MILES CITY     CLEAR     54  49  83 SE6       30.10F
FORSYTH          N/A     55  52  88 CALM      30.08F
LAUREL           N/A     52  45  77 CALM      30.08S
ROUNDUP          N/A     52  42  68 CALM      30.01S
$$

REGIONAL REPORTS...DAKOTAS

CITY           SKY/WX    TMP DP  RH WIND       PRES   REMARKS
WILLISTON      CLEAR     52  48  86 CALM      30.15F
MINOT          CLEAR     50  44  80 CALM      30.16F
DICKINSON      PTCLDY    50  47  89 SE8       30.16F FOG
BEACH          CLOUDY    52  52 100 SE7       30.16F FOG
CROSBY         FAIR      50  50 100 S8        30.15F
BISMARCK       CLEAR     46  45  96 NE3       30.20S
GRAND FORKS    CLEAR     44  42  93 SW3       30.17S
FARGO          CLEAR     46  42  86 CALM      30.18S
BUFFALO SD       N/A     54  50  86 E7        30.11F
RAPID CITY     MOCLDY    57  55  93 SE3       30.17F
$$

REGIONAL REPORTS...WYOMING/IDAHO/WASHINGTON

CITY           SKY/WX    TMP DP  RH WIND       PRES   REMARKS
GILLETTE       CLEAR     54  51  90 S10       30.15F FOG
SHERIDAN       CLEAR     49  47  93 CALM      30.12S FOG
BUFFALO WY     CLEAR     52  47  83 SW6       30.16S
CODY           PTCLDY    55  52  88 S3        30.15S
YELLOWSTONE LA   N/A     48  46  93 CALM      30.33S
IDAHO FALLS    MOCLDY    57  53  86 N7        30.12R
SALMON         CLEAR     57  45  62 CALM      30.10S
BOISE          CLOUDY    77  47  34 E6        29.97R
SPOKANE        MOCLDY    71  44  37 CALM      29.93S
$$

REGIONAL REPORTS...ALBERTA

CITY           SKY/WX    TMP DP  RH WIND       PRES   REMARKS
EDMONTON       CLOUDY    54  45  71 NW9       30.13R
CALGARY        MOCLDY    57  48  72 VRB2      30.14S
LETHBRIDGE     LGT RAIN  57  52  82 E14       30.10F
MEDICINE HAT   CLOUDY    63  48  59 NW10      30.07F
WATERTON GATE    N/A     57  48  72 E3          N/A
CARDSTON         N/A     54  50  87 W5          N/A
MILK RIVER       N/A     55  50  82 W3          N/A
ONEFOUR          N/A     54  46  76 NE10        N/A
$$

REGIONAL REPORTS...SASKATCHEWAN

CITY           SKY/WX    TMP DP  RH WIND       PRES   REMARKS
SWIFT CURRENT  CLEAR     54  45  71 S12       30.06F
REGINA         CLOUDY    52  45  76 S9        30.10S
SASKATOON      PTCLDY    52  48  87 S8        30.02F
CYPRESS HILLS    N/A     52  41  66 SE3         N/A
VAL MARIE        N/A     46  43  87 E5          N/A
ROCKGLEN         N/A     46  45  93 S8          N/A
ASSINIBOIA       N/A     52  48  87 NW7         N/A
$$


USA.gov is the U.S. government's official web portal to all federal, state and local government web resources and services.